Погода в Званном

Россия / Курская область     51°22′47″N   34°32′53″E
темп.,
°C
ветер,
м/с
пор.,
м/с
влажн.,
%
обл.,
%
осадки,
мм/ч
давл.,
гПа
погр.,
м
7 марта, вс
вс700:00−9зсз349556 0.1 102280
03:00−10зюз489128 0.1 1021156
06:00−9юз613840 0.0 1019285
09:00−6юз8178143 0.0 1016566
12:00−2зюз101681100 0.0 1012995
15:00−1зюз121890100 0.3 10081302
18:00−1зюз101887100 0.2 10061132
21:00−1з9169099 0.3 1006921
8 марта, пн
пн800:00−1з8149197 0.1 1006922
03:00−2з6129798 1.2 1006655
06:00−3з389699 0.8 1005300
09:00−3з6119399 0.9 1006743
12:00−3зсз698199 0.2 10071128
15:00−2зсз688099 0.4 10081029
18:00−4з498788 0.1 1009318
21:00−5сз599194 0.4 1011532
9 марта, вт
вт900:00−10сз46910 0.0 1013119
03:00−11зсз36940 0.0 1014101
06:00−10зсз369554 0.1 1016196
09:00−10сз479476 0.1 1017250
12:00−8сз478773 0.0 1018579
15:00−7сз468384 0.1 1020763
18:00−9зсз358999 0.0 1020120
21:00−12сз348956 0.0 102366
10 марта, ср
ср1000:00−13ссз239028 0.0 102434
03:00−14ссз129126 0.0 102520
06:00−15с11909 0.0 102520
09:00−12св018847 0.0 102637
12:00−8ю117949 0.0 1026324
15:00−7ююз127473 0.0 1026545
18:00−9ююв128699 0.0 102521
21:00−10ююв228798 0.0 102621
11 марта, чт
чт1100:00−11ю228695 0.0 102621
03:00−11ююв228685 0.0 102721
06:00−12ююв238753 0.0 102721
09:00−9ю358764 0.0 1027148
12:00−4ююз4675100 0.0 1027489
15:00−3ююз577167 0.0 1025889
18:00−5ю34790 0.0 102464
21:00−6ю5117638 0.0 1023215